User: anonymous   Login
Location: Lone Wolf Observatory
(41.0360°N, 89.2260°W)
Time: 06:46:37
(UTC-05:00)
Language:

Cosmos 1378 Rocket - Orbit

View from above orbital plane
View from above orbital plane
View from above satellite
View from above satellite

Ground track
Ground track

The orbit data is extracted from the following two-line orbital elements,

1 13272U 82059B   16148.49942499  .00000114  00000-0  10646-4 0  9996
2 13272  82.5088 141.5567 0017470 315.0170  44.9629 14.84525448834670
Epoch (UTC): 27 May 2016 11:59:10
Eccentricity: 0.0017470
inclination: 82.5088°
perigee height: 603 km
apogee height: 627 km
right ascension of ascending node: 141.5567°
argument of perigee: 315.0170°
revolutions per day: 14.84525448
mean anomaly at epoch: 44.9629°
orbit number at epoch: 83467

The dashed part of the orbit path shows where the satellite is in the earth's shadow,  

DLR